AL-1 (AOLONG 1)

Last updated on Wed Sep 21 2016 20:01:18 GMT+0000 (Coordinated Universal Time)

1 41629U 16042F 16239.65613786 .02812959 76394-5 11024-3 0 9999 2 41629 40.7954 1.0182 0028766 314.0142 46.0026 16.40441923 10013

Satellite not in orbit